SV2BBO-2 Thessaloniki GR current weather conditions

sailwx.info

Wind from 164 at 3 knots gusting 3

Air temperature 22.2° C
Dewpoint -2.5° C

Last reported at 2018-Apr-22 10:07 UTC.
Time now 2018-Apr-22 10:52 UTC

Location: N 40°38' E 022°57'.
View on Google Maps.

See reports from other nearby stations

  
Tides and Currents Weather Stations Pressure Air Temp Water Temp Dewpoint Dewpoint Depression Visibility Wind Speed Wind Dir Waves Ship Positions
date/time (UTC)wind fromknots sea level pressurealtimeterstation pressurevisibilityair tempwater tempwave heightnotes
2018-Apr-22 10:07 164 3 gusting 3 22.2
2018-Apr-22 09:57 198 3 gusting 5 22.8
2018-Apr-22 09:47 195 3 gusting 3 22.2
2018-Apr-22 09:37 208 4 gusting 4 21.7
2018-Apr-22 09:27 186 2 gusting 6 21.7
2018-Apr-22 09:17 192 2 gusting 4 21.7
2018-Apr-22 09:07 169 4 gusting 4 21.7
2018-Apr-22 08:57 190 3 gusting 4 21.1
2018-Apr-22 08:47 204 3 gusting 4 21.7
2018-Apr-22 08:37 198 1 gusting 3 21.7
2018-Apr-22 08:27 182 3 gusting 4 21.1
2018-Apr-22 08:17 201 2 gusting 3 20.6
2018-Apr-22 08:07 180 2 gusting 3 20.6
2018-Apr-22 07:57 186 20.6
2018-Apr-22 07:47 238 20.6
2018-Apr-22 07:37 222 3 gusting 5 20.0
2018-Apr-22 07:27 217 4 gusting 5 20.0
2018-Apr-22 07:17 207 4 gusting 5 20.6
2018-Apr-22 07:07 213 4 gusting 4 20.6
2018-Apr-22 06:57 215 3 gusting 4 21.1
2018-Apr-22 06:47 204 2 gusting 3 21.1
2018-Apr-22 06:37 201 3 gusting 3 20.6
2018-Apr-22 06:27 208 2 20.0
2018-Apr-22 06:17 214 2 gusting 3 19.4
2018-Apr-22 06:07 172 19.4
2018-Apr-22 05:57 173 2 gusting 3 19.4
2018-Apr-22 05:47 165 2 gusting 3 18.3
2018-Apr-22 05:37 196 2 gusting 2 17.8
2018-Apr-22 05:27 163 2 gusting 2 17.2
2018-Apr-22 05:17 184 16.7
2018-Apr-22 05:07 191 3 gusting 4 16.7
2018-Apr-22 04:57 106 16.1
2018-Apr-22 04:47 054 15.6
2018-Apr-22 04:37 049 15.6
2018-Apr-22 04:27 049 15.6
2018-Apr-22 04:17 049 15.6
2018-Apr-22 04:07 049 15.6
2018-Apr-22 03:57 049 15.6
2018-Apr-22 03:47 049 15.6
2018-Apr-22 03:37 049 15.6
2018-Apr-22 03:27 049 16.1
2018-Apr-22 03:17 043 16.1
2018-Apr-22 03:07 042 16.7
2018-Apr-22 02:57 042 16.7
2018-Apr-22 02:47 042 16.7
2018-Apr-22 02:37 033 16.7
2018-Apr-22 02:27 032 16.7
2018-Apr-22 02:17 032 16.1
2018-Apr-22 02:07 031 16.1
2018-Apr-22 01:57 031 16.1
2018-Apr-22 01:43 032 16.7
2018-Apr-22 01:33 031 16.7
2018-Apr-22 01:23 031 16.7
2018-Apr-22 01:13 031 16.7
2018-Apr-22 01:03 031 16.7
2018-Apr-22 00:53 031 16.7
2018-Apr-22 00:43 031 17.2
2018-Apr-22 00:33 031 17.2
2018-Apr-22 00:23 031 16.7
2018-Apr-22 00:13 030 16.7
2018-Apr-22 00:03 357 2 gusting 2 17.2
2018-Apr-21 23:53 341 17.8
2018-Apr-21 23:43 341 17.8
2018-Apr-21 23:33 327 18.3
2018-Apr-21 23:23 324 18.3
2018-Apr-21 23:13 307 18.3
2018-Apr-21 23:03 306 18.3
2018-Apr-21 22:53 295 18.3
2018-Apr-21 22:43 295 18.9
2018-Apr-21 22:33 293 18.9
2018-Apr-21 22:23 285 18.9
2018-Apr-21 22:13 284 3 gusting 4 18.9
2018-Apr-21 22:03 227 18.9
2018-Apr-21 21:53 110 1 gusting 3 19.4
2018-Apr-21 21:43 110 1 gusting 2 19.4
2018-Apr-21 21:33 110 19.4
2018-Apr-21 21:23 110 19.4
2018-Apr-21 21:13 098 18.9
2018-Apr-21 21:03 084 2 gusting 4 18.9
2018-Apr-21 20:53 068 2 gusting 3 18.9
2018-Apr-21 20:43 101 2 gusting 4 18.9
2018-Apr-21 20:33 105 2 gusting 4 18.9
2018-Apr-21 20:23 081 2 gusting 2 19.4
2018-Apr-21 20:13 081 2 gusting 3 19.4
2018-Apr-21 20:03 065 2 gusting 3 19.4
2018-Apr-21 19:53 166 3 gusting 3 19.4
2018-Apr-21 19:43 135 2 gusting 4 20.0
2018-Apr-21 19:33 080 2 gusting 4 19.4
2018-Apr-21 19:23 110 3 gusting 6 19.4
2018-Apr-21 19:13 152 2 gusting 3 19.4
2018-Apr-21 19:03 155 3 gusting 4 19.4
2018-Apr-21 18:53 080 3 gusting 3 19.4
2018-Apr-21 18:43 090 2 gusting 4 19.4
2018-Apr-21 18:33 081 2 gusting 3 20.0
2018-Apr-21 18:23 160 3 gusting 6 20.6
2018-Apr-21 18:13 160 2 gusting 5 20.6
2018-Apr-21 18:03 097 2 gusting 3 20.6
2018-Apr-21 17:53 165 2 gusting 3 20.6
2018-Apr-21 17:43 153 4 gusting 6 20.6
2018-Apr-21 17:33 159 2 gusting 4 20.6
2018-Apr-21 17:23 187 4 gusting 7 20.6
2018-Apr-21 17:13 188 4 gusting 5 20.6
2018-Apr-21 17:03 204 6 gusting 7 20.6
2018-Apr-21 16:53 194 4 gusting 5 21.1
2018-Apr-21 16:43 183 6 gusting 6 21.1
2018-Apr-21 16:33 213 4 gusting 5 21.1
2018-Apr-21 16:23 190 5 gusting 7 21.7
2018-Apr-21 16:13 191 6 gusting 6 21.7
2018-Apr-21 16:03 187 5 gusting 6 21.7
2018-Apr-21 15:53 204 6 gusting 6 22.2
2018-Apr-21 15:43 163 5 gusting 5 22.8
2018-Apr-21 15:33 206 5 gusting 7 22.8
2018-Apr-21 15:23 213 3 gusting 5 22.8
2018-Apr-21 15:13 187 3 gusting 5 22.8
2018-Apr-21 15:03 185 3 gusting 5 22.8
2018-Apr-21 14:53 196 5 gusting 7 22.8
2018-Apr-21 14:43 199 6 gusting 6 22.8
2018-Apr-21 14:33 236 6 gusting 6 22.8
2018-Apr-21 14:23 171 3 gusting 6 22.8
2018-Apr-21 14:13 214 4 gusting 4 22.2
2018-Apr-21 14:03 198 4 gusting 6 22.2
2018-Apr-21 13:53 173 4 gusting 6 22.2
2018-Apr-21 13:43 170 4 gusting 6 22.8
2018-Apr-21 13:33 186 22.8
2018-Apr-21 13:23 224 5 gusting 6 22.8
2018-Apr-21 13:13 238 5 gusting 5 22.2
2018-Apr-21 13:03 197 4 gusting 7 22.2
2018-Apr-21 12:53 221 5 gusting 6 22.2
2018-Apr-21 12:43 241 5 gusting 8 21.7
2018-Apr-21 12:33 218 5 gusting 7 21.7
2018-Apr-21 12:23 245 5 gusting 7 21.7
2018-Apr-21 12:13 223 5 gusting 7 21.7
2018-Apr-21 12:03 231 8 gusting 8 21.7
2018-Apr-21 11:53 232 6 gusting 8 21.7
2018-Apr-21 11:43 224 7 gusting 7 21.7
2018-Apr-21 11:33 183 3 gusting 5 21.7
2018-Apr-21 11:23 216 6 gusting 7 21.7
2018-Apr-21 11:13 049 2 gusting 4 16.1
2018-Apr-21 11:08 049 2 gusting 4 16.1
2018-Apr-21 10:58 049 2 gusting 4 16.1
2018-Apr-21 10:48 049 2 gusting 4 16.1
2018-Apr-21 10:38 049 2 gusting 4 16.1
2018-Apr-21 10:28 049 2 gusting 4 16.1
2018-Apr-21 10:18 049 2 gusting 4 16.1
2018-Apr-21 10:08 049 2 gusting 4 16.1
2018-Apr-21 09:58 049 2 gusting 4 16.1
2018-Apr-21 09:48 049 2 gusting 4 16.1
2018-Apr-21 09:38 049 2 gusting 4 16.1
2018-Apr-21 09:28 049 2 gusting 4 16.1
2018-Apr-21 09:18 049 2 gusting 4 16.1
2018-Apr-21 09:08 049 2 gusting 4 16.1
2018-Apr-21 08:58 049 2 gusting 4 16.1
2018-Apr-21 08:48 049 2 gusting 4 16.1
2018-Apr-21 08:38 049 2 gusting 4 16.1
2018-Apr-21 08:28 049 2 gusting 4 16.1
2018-Apr-21 08:18 049 2 gusting 4 16.1
2018-Apr-21 08:08 049 2 gusting 4 16.1
2018-Apr-21 07:58 049 2 gusting 4 16.1
2018-Apr-21 07:48 049 2 gusting 4 16.1
2018-Apr-21 07:38 049 2 gusting 4 16.1
2018-Apr-21 07:28 049 2 gusting 4 16.1
2018-Apr-21 07:18 049 2 gusting 4 16.1
2018-Apr-21 07:08 049 2 gusting 4 16.1
2018-Apr-21 06:58 049 2 gusting 4 16.1
2018-Apr-21 06:48 049 2 gusting 4 16.1
2018-Apr-21 06:38 049 2 gusting 4 16.1
2018-Apr-21 06:28 049 2 gusting 4 16.1
2018-Apr-21 06:18 049 2 gusting 4 16.1
2018-Apr-21 06:08 049 2 gusting 4 16.1
2018-Apr-21 05:58 049 2 gusting 4 16.1
2018-Apr-21 05:48 049 2 gusting 4 16.1
2018-Apr-21 05:38 049 2 gusting 4 16.1
2018-Apr-21 05:28 049 2 gusting 4 16.1
2018-Apr-21 05:18 049 2 gusting 4 16.1
2018-Apr-21 05:08 049 2 gusting 4 16.1
2018-Apr-21 04:58 049 2 gusting 4 16.1
2018-Apr-21 04:48 049 2 gusting 4 16.1
2018-Apr-21 04:38 049 2 gusting 4 16.1
2018-Apr-21 04:28 049 2 gusting 4 16.1
2018-Apr-21 04:18 049 2 gusting 4 16.1
2018-Apr-21 04:08 049 2 gusting 4 16.1
2018-Apr-21 03:58 049 2 gusting 4 16.1
2018-Apr-21 03:48 049 2 gusting 4 16.1
2018-Apr-21 03:38 049 2 gusting 4 16.1
2018-Apr-21 03:28 049 2 gusting 4 16.1
2018-Apr-21 03:18 049 2 gusting 4 16.1
2018-Apr-21 03:08 049 2 gusting 4 16.1
2018-Apr-21 02:58 049 2 gusting 4 16.1
2018-Apr-21 02:48 049 2 gusting 4 16.1
2018-Apr-21 02:38 049 2 gusting 4 16.1
2018-Apr-21 02:28 049 2 gusting 4 16.1
2018-Apr-21 02:18 049 2 gusting 4 16.1
2018-Apr-21 02:08 049 2 gusting 4 16.1
2018-Apr-21 01:58 049 2 gusting 4 16.1
2018-Apr-21 01:48 049 2 gusting 4 16.1
2018-Apr-21 01:38 049 2 gusting 2 16.1
2018-Apr-21 01:28 049 2 gusting 3 15.6
2018-Apr-21 01:18 053 3 gusting 4 15.6
2018-Apr-21 01:08 055 3 gusting 5 16.1
2018-Apr-21 00:58 056 3 gusting 4 16.1
2018-Apr-21 00:48 032 3 gusting 3 15.6
2018-Apr-21 00:38 059 15.6
2018-Apr-21 00:28 050 3 gusting 5 15.6
2018-Apr-21 00:18 055 3 gusting 4 15.6
2018-Apr-21 00:08 055 3 gusting 4 15.6
2018-Apr-20 23:58 047 3 gusting 3 15.6
2018-Apr-20 23:48 058 4 gusting 5 15.6
2018-Apr-20 23:38 052 4 gusting 5 16.7
2018-Apr-20 23:28 351 17.2
2018-Apr-20 23:18 009 5 gusting 5 17.2
2018-Apr-20 23:08 027 4 gusting 7 17.2
2018-Apr-20 22:58 015 3 gusting 5 17.8
2018-Apr-20 22:48 020 2 gusting 3 17.2
2018-Apr-20 22:38 041 17.2
2018-Apr-20 22:28 038 17.2
2018-Apr-20 22:18 035 3 gusting 3 17.2
2018-Apr-20 22:08 003 2 gusting 4 17.2
2018-Apr-20 21:58 17.8
2018-Apr-20 21:48 352 2 gusting 3 17.8
2018-Apr-20 21:38 358 3 gusting 5 17.8
2018-Apr-20 21:28 014 17.8
2018-Apr-20 21:18 298 17.8
2018-Apr-20 21:08 298 2 gusting 2 17.8
2018-Apr-20 20:58 236 17.8
2018-Apr-20 20:48 216 2 gusting 2 17.8
2018-Apr-20 20:38 206 2 gusting 3 17.8
2018-Apr-20 20:28 253 2 gusting 3 17.8
2018-Apr-20 20:18 165 2 gusting 3 17.8
2018-Apr-20 20:08 219 2 gusting 4 17.2
2018-Apr-20 19:58 185 3 gusting 3 17.8
2018-Apr-20 19:48 194 2 gusting 3 17.8
2018-Apr-20 19:38 246 1 gusting 5 17.8
2018-Apr-20 19:28 066 17.8
2018-Apr-20 19:18 058 3 gusting 4 17.8
2018-Apr-20 19:08 080 2 gusting 3 18.3
2018-Apr-20 18:58 109 17.8
2018-Apr-20 18:48 104 3 gusting 3 17.8
2018-Apr-20 18:38 187 2 gusting 3 18.3
2018-Apr-20 18:28 212 2 18.9
2018-Apr-20 18:18 170 2 gusting 3 18.9
2018-Apr-20 18:08 214 4 gusting 6 18.9
2018-Apr-20 17:58 221 4 gusting 5 18.9
2018-Apr-20 17:48 202 4 gusting 5 18.9
2018-Apr-20 17:38 218 5 gusting 5 19.4
2018-Apr-20 17:28 190 5 gusting 5 19.4
2018-Apr-20 17:18 207 6 gusting 10 20.0
2018-Apr-20 17:08 186 4 gusting 6 20.0
2018-Apr-20 16:58 214 6 gusting 6 20.0
2018-Apr-20 16:48 215 5 gusting 6 20.6
2018-Apr-20 16:38 326 20.6
2018-Apr-20 16:28 046 5 gusting 5 20.0
2018-Apr-20 16:18 065 5 gusting 6 19.4
2018-Apr-20 16:08 060 5 gusting 7 20.0
2018-Apr-20 15:58 051 6 gusting 8 20.0
2018-Apr-20 15:48 019 3 gusting 3 21.1
2018-Apr-20 15:38 252 2 gusting 3 22.8
2018-Apr-20 15:28 078 2 gusting 3 22.8
2018-Apr-20 15:18 181 2 gusting 2 22.2
2018-Apr-20 15:08 163 2 gusting 5 22.2
2018-Apr-20 14:58 21.7
2018-Apr-20 14:48 079 2 gusting 2 21.1
2018-Apr-20 14:38 282 3 gusting 3 20.6
2018-Apr-20 14:28 147 2 gusting 3 21.7
2018-Apr-20 14:18 174 5 gusting 6 21.7
2018-Apr-20 14:08 100 5 gusting 6 21.1
2018-Apr-20 13:58 081 4 gusting 5 20.0
2018-Apr-20 13:48 069 7 gusting 7 19.4
2018-Apr-20 13:38 042 6 gusting 12 20.6
2018-Apr-20 13:28 048 4 gusting 7 21.1
2018-Apr-20 13:17 039 3 gusting 5 20.0
2018-Apr-20 13:07 045 7 gusting 11 20.0
2018-Apr-20 12:57 057 6 gusting 10 21.1
2018-Apr-20 12:47 057 5 gusting 7 22.8
2018-Apr-20 12:37 016 6 gusting 8 23.3
2018-Apr-20 12:27 141 3 gusting 6 24.4
2018-Apr-20 12:17 124 4 gusting 4 25.0
2018-Apr-20 12:07 111 3 gusting 6 24.4
2018-Apr-20 11:57 147 2 gusting 4 23.9
2018-Apr-20 11:47 097 5 gusting 6 23.9
2018-Apr-20 11:37 045 3 gusting 3 24.4
2018-Apr-20 11:27 033 3 gusting 3 23.9
2018-Apr-20 11:17 156 6 gusting 7 23.9
2018-Apr-20 11:07 051 6 gusting 9 24.4
2018-Apr-20 10:57 047 7 gusting 12 23.9
2018-Apr-20 10:47 078 3 gusting 10 23.9
2018-Apr-20 10:37 050 6 gusting 10 25.6
2018-Apr-20 10:27 197 4 gusting 4 25.6